When you browse on this site, cookies collect data to enhance your experience and personalize the content and advertising you see.
Visit our Privacy Policy to learn more. By continuing to use the site, you agree to this use of cookies and data.
  • In Austria
  • List of Countries
  • For 7 days
  • Water Temperature
  • Weather Map
  • News
  • Weather Widgets
  • user-avatar
    Login

    Hourly Weather Tibissa

    Today, 13 December, Friday

    Time Temperature Precipitation Wind Pressure Humidity
    00:00 +5°C° 0 mm 3 mps 681 mmHg 67%
    01:00 +5°C° 0 mm 3 mps 681 mmHg 65%
    02:00 +5°C° 0 mm 3 mps 680 mmHg 65%
    03:00 +4°C° 0 mm 3 mps 680 mmHg 66%
    04:00 +4°C° 0 mm 3 mps 680 mmHg 66%
    05:00 +4°C° 0 mm 4 mps 680 mmHg 69%
    06:00 +4°C° 0 mm 4 mps 680 mmHg 71%
    07:00 +4°C° 0 mm 4 mps 680 mmHg 74%
    08:00 +6°C° 0 mm 5 mps 680 mmHg 72%
    09:00 +7°C° 0 mm 6 mps 680 mmHg 70%
    10:00 +8°C° 0 mm 6 mps 680 mmHg 69%
    11:00 +9°C° 0 mm 8 mps 680 mmHg 65%
    12:00 +11°C° 0 mm 9 mps 680 mmHg 62%
    13:00 +12°C° 0 mm 11 mps 680 mmHg 58%
    14:00 +12°C° 0 mm 10 mps 680 mmHg 60%
    15:00 +12°C° 0 mm 10 mps 679 mmHg 63%
    16:00 +12°C° 0 mm 10 mps 679 mmHg 65%
    17:00 +11°C° 0 mm 9 mps 679 mmHg 70%
    18:00 +10°C° 0 mm 9 mps 679 mmHg 75%
    19:00 +8°C° 0 mm 9 mps 679 mmHg 79%
    20:00 +8°C° 0 mm 9 mps 679 mmHg 80%
    21:00 +8°C° 0 mm 9 mps 679 mmHg 82%
    22:00 +7°C° 0 mm 9 mps 680 mmHg 83%
    23:00 +7°C° 0 mm 9 mps 680 mmHg 83%

    Tomorrow, 14 December, Saturday

    Time Temperature Precipitation Wind Pressure Humidity
    00:00 +7°C° 0 mm 9 mps 680 mmHg 84%
    01:00 +7°C° 0 mm 9 mps 680 mmHg 84%
    02:00 +7°C° 0 mm 9 mps 680 mmHg 84%
    03:00 +7°C° 0 mm 8 mps 680 mmHg 84%
    04:00 +6°C° 0 mm 8 mps 680 mmHg 84%
    05:00 +6°C° 0 mm 7 mps 681 mmHg 84%
    06:00 +6°C° 0 mm 7 mps 682 mmHg 85%
    07:00 +7°C° 0 mm 6 mps 682 mmHg 86%
    08:00 +8°C° 0 mm 7 mps 683 mmHg 82%
    09:00 +8°C° 0 mm 9 mps 684 mmHg 78%
    10:00 +9°C° 0 mm 10 mps 685 mmHg 74%
    11:00 +11°C° 0 mm 10 mps 685 mmHg 71%
    12:00 +12°C° 0 mm 9 mps 685 mmHg 68%
    13:00 +12°C° 0 mm 8 mps 685 mmHg 65%
    14:00 +13°C° 0 mm 8 mps 685 mmHg 64%
    15:00 +14°C° 0 mm 7 mps 685 mmHg 63%
    16:00 +14°C° 0 mm 7 mps 686 mmHg 62%
    17:00 +13°C° 0 mm 6 mps 686 mmHg 67%
    18:00 +11°C° 0 mm 4 mps 686 mmHg 73%
    19:00 +10°C° 0 mm 3 mps 686 mmHg 78%
    20:00 +10°C° 0 mm 2 mps 686 mmHg 79%
    21:00 +9°C° 0 mm 2 mps 686 mmHg 80%
    22:00 +9°C° 0 mm 2 mps 687 mmHg 82%
    23:00 +9°C° 0 mm 2 mps 687 mmHg 80%

    Day after tomorrow, 15 December, Sunday

    Time Temperature Precipitation Wind Pressure Humidity
    00:00 +9°C° 0 mm 2 mps 686 mmHg 78%
    01:00 +9°C° 0 mm 2 mps 686 mmHg 76%
    02:00 +9°C° 0 mm 2 mps 686 mmHg 75%
    03:00 +8°C° 0 mm 2 mps 686 mmHg 74%
    04:00 +8°C° 0 mm 3 mps 686 mmHg 73%
    05:00 +8°C° 0 mm 3 mps 686 mmHg 74%
    06:00 +8°C° 0 mm 3 mps 686 mmHg 74%
    07:00 +8°C° 0 mm 3 mps 686 mmHg 75%
    08:00 +9°C° 0 mm 3 mps 687 mmHg 69%
    09:00 +11°C° 0 mm 3 mps 687 mmHg 64%
    10:00 +13°C° 0 mm 3 mps 688 mmHg 59%
    11:00 +14°C° 0 mm 3 mps 688 mmHg 54%
    12:00 +16°C° 0 mm 3 mps 688 mmHg 49%
    13:00 +17°C° 0 mm 3 mps 688 mmHg 44%
    14:00 +17°C° 0 mm 3 mps 688 mmHg 44%
    15:00 +17°C° 0 mm 3 mps 687 mmHg 45%
    16:00 +17°C° 0 mm 3 mps 687 mmHg 46%
    17:00 +14°C° 0 mm 3 mps 687 mmHg 51%
    18:00 +12°C° 0 mm 3 mps 687 mmHg 57%
    19:00 +12°C° 0 mm 2 mps 687 mmHg 62%
    20:00 +11°C° 0 mm 3 mps 687 mmHg 62%
    21:00 +10°C° 0 mm 3 mps 687 mmHg 62%
    22:00 +10°C° 0 mm 3 mps 687 mmHg 61%
    23:00 +10°C° 0 mm 3 mps 686 mmHg 62%

    16 December, Monday

    Time Temperature Precipitation Wind Pressure Humidity
    00:00 +10°C° 0 mm 3 mps 686 mmHg 63%
    01:00 +10°C° 0 mm 4 mps 686 mmHg 63%
    02:00 +8°C° 0 mm 4 mps 686 mmHg 65%
    03:00 +8°C° 0 mm 4 mps 686 mmHg 67%
    04:00 +8°C° 0 mm 4 mps 685 mmHg 69%
    05:00 +8°C° 0 mm 4 mps 685 mmHg 70%
    06:00 +7°C° 0 mm 4 mps 685 mmHg 71%
    07:00 +7°C° 0 mm 4 mps 685 mmHg 72%
    08:00 +9°C° 0 mm 5 mps 686 mmHg 66%
    09:00 +10°C° 0 mm 5 mps 686 mmHg 61%
    10:00 +13°C° 0 mm 6 mps 687 mmHg 56%
    11:00 +12°C° 0 mm 7 mps 686 mmHg 53%
    12:00 +14°C° 0 mm 7 mps 686 mmHg 50%
    13:00 +15°C° 0 mm 8 mps 686 mmHg 48%
    14:00 +15°C° 0 mm 8 mps 685 mmHg 49%
    15:00 +15°C° 0 mm 8 mps 685 mmHg 50%
    16:00 +13°C° 0 mm 8 mps 684 mmHg 51%
    17:00 +12°C° 0 mm 7 mps 684 mmHg 56%
    18:00 +11°C° 0 mm 6 mps 684 mmHg 60%
    19:00 +9°C° 0 mm 5 mps 684 mmHg 65%
    20:00 +9°C° 0 mm 6 mps 684 mmHg 64%
    21:00 +9°C° 0 mm 7 mps 684 mmHg 63%
    22:00 +9°C° 0 mm 8 mps 684 mmHg 61%
    23:00 +9°C° 0 mm 8 mps 683 mmHg 61%

    17 December, Tuesday

    Time Temperature Precipitation Wind Pressure Humidity
    00:00 +8°C° 0 mm 9 mps 683 mmHg 60%
    01:00 +8°C° 0 mm 9 mps 683 mmHg 60%
    02:00 +8°C° 0 mm 9 mps 682 mmHg 60%
    03:00 +8°C° 0 mm 9 mps 682 mmHg 60%
    04:00 +8°C° 0 mm 9 mps 682 mmHg 60%
    05:00 +9°C° 0 mm 8 mps 682 mmHg 61%
    06:00 +9°C° 0 mm 7 mps 682 mmHg 62%
    07:00 +9°C° 0 mm 7 mps 682 mmHg 63%
    08:00 +10°C° 0 mm 7 mps 682 mmHg 59%
    09:00 +11°C° 0 mm 8 mps 682 mmHg 55%
    10:00 +12°C° 0 mm 9 mps 682 mmHg 51%
    11:00 +13°C° 0 mm 9 mps 682 mmHg 48%
    12:00 +14°C° 0 mm 10 mps 681 mmHg 45%
    13:00 +16°C° 0 mm 11 mps 681 mmHg 42%
    14:00 +14°C° 0 mm 10 mps 680 mmHg 44%
    15:00 +13°C° 0 mm 10 mps 680 mmHg 46%
    16:00 +13°C° 0 mm 9 mps 679 mmHg 49%
    17:00 +12°C° 0 mm 9 mps 679 mmHg 54%
    18:00 +10°C° 0 mm 8 mps 679 mmHg 59%
    19:00 +9°C° 0 mm 7 mps 679 mmHg 64%
    20:00 +9°C° 0 mm 7 mps 678 mmHg 63%
    21:00 +9°C° 0 mm 8 mps 678 mmHg 63%
    22:00 +9°C° 0 mm 8 mps 678 mmHg 62%
    23:00 +9°C° 0 mm 8 mps 677 mmHg 62%

    18 December, Wednesday

    Time Temperature Precipitation Wind Pressure Humidity
    00:00 +9°C° 0 mm 8 mps 677 mmHg 62%
    01:00 +9°C° 0 mm 8 mps 677 mmHg 63%
    02:00 +8°C° 0 mm 6 mps 677 mmHg 63%
    03:00 +8°C° 0 mm 5 mps 677 mmHg 64%
    04:00 +9°C° 0 mm 3 mps 677 mmHg 64%
    05:00 +8°C° 0 mm 3 mps 677 mmHg 65%
    06:00 +7°C° 0 mm 3 mps 677 mmHg 67%
    07:00 +7°C° 0 mm 3 mps 677 mmHg 68%
    08:00 +6°C° 0 mm 4 mps 678 mmHg 67%
    09:00 +7°C° 0 mm 4 mps 678 mmHg 65%
    10:00 +7°C° 0 mm 5 mps 679 mmHg 64%
    11:00 +8°C° 0 mm 5 mps 679 mmHg 59%
    12:00 +9°C° 0 mm 6 mps 680 mmHg 53%
    13:00 +10°C° 0 mm 7 mps 680 mmHg 48%
    14:00 +10°C° 0 mm 6 mps 680 mmHg 47%
    15:00 +10°C° 0 mm 6 mps 680 mmHg 46%
    16:00 +10°C° 0 mm 5 mps 680 mmHg 45%
    17:00 +8°C° 0 mm 5 mps 681 mmHg 52%
    18:00 +7°C° 0 mm 4 mps 681 mmHg 58%
    19:00 +6°C° 0 mm 4 mps 681 mmHg 64%
    20:00 +6°C° 0 mm 4 mps 681 mmHg 66%
    21:00 +5°C° 0 mm 4 mps 682 mmHg 68%
    22:00 +5°C° 0 mm 3 mps 682 mmHg 69%
    23:00 +5°C° 0 mm 4 mps 682 mmHg 70%
    Show more